Wind_Speed
71 69 67 65 64 63 63 66 67 63 62 65 67 65 65 61 64 65 70 65 68 75 71 71 69 64 55 51 50 50 49 47 46 47 49 50 48 45 44 43 45 43 39
68 66 65 66 67 64 63 63 63 63 65 67 68 67 65 67 65 70 65 63 63 65 65 71 64 57 49 47 46 46 44 45 45 47 49 50 50 48 43 44 42 41 39
67 67 65 64 63 65 66 69 69 69 68 66 67 70 70 69 64 65 63 65 64 59 56 52 50 45 44 42 41 40 42 43 44 44 44 45 44 43 43 40 39 39 38
64 63 65 66 65 61 60 59 55 56 55 56 59 60 62 62 60 61 59 56 56 54 44 44 37 42 39 37 35 37 38 37 35 33 33 34 34 37 38 39 39 37 37
66 63 59 57 56 52 48 44 45 42 40 41 44 49 46 43 41 39 39 39 43 44 41 35 39 31 34 29 29 30 30 29 26 26 28 28 31 36 38 38 38 38 36
60 57 53 48 47 42 38 35 32 33 37 38 33 35 36 32 29 28 28 31 36 32 32 25 25 28 25 25 27 25 22 23 20 20 22 24 25 22 23 28 29 34 33
44 40 36 34 29 25 24 22 23 22 28 28 25 22 19 16 21 27 27 26 24 26 21 19 20 18 21 21 23 22 12 16 21 19 22 24 11 16 21 22 23 13 16
24 17 17 13 16 13 13 18 22 25 29 25 18 12 10 10 13 12 12 12 14 15 13 16 13 15 15 13 10 9 11 18 18 19 25 15 11 13 13 15 12 14 9
16 11 7 6 3 7 15 20 24 27 26 18 10 7 5 4 4 2 5 8 9 10 8 4 9 11 13 10 10 9 14 17 22 19 14 10 11 16 15 10 8 15 9
12 9 5 5 8 9 11 13 11 10 0 5 7 8 8 6 4 4 5 5 6 9 5 8 6 6 10 10 12 15 22 16 18 13 4 10 13 12 12 11 12 11 11
16 14 11 12 9 6 13 16 12 11 11 6 6 5 4 9 7 6 8 10 2 2 3 5 8 9 14 14 18 21 19 20 23 16 9 13 14 15 15 15 14 14 14
17 17 16 13 11 12 13 15 18 20 20 17 14 12 9 10 13 15 12 9 10 3 5 8 7 7 11 12 13 16 18 19 7 4 6 9 16 20 20 20 19 19 19
19 21 23 23 23 24 24 23 23 25 27 25 22 20 18 14 14 11 9 8 8 10 10 8 8 9 12 12 9 5 1 6 8 9 13 19 20 20 20 21 22 23 23
24 23 24 26 25 24 22 23 23 21 20 19 19 19 20 19 15 11 7 4 10 10 10 6 4 3 2 5 7 7 9 12 13 15 17 21 22 23 24 25 25 26 28
25 25 26 24 23 23 20 22 21 21 18 17 17 16 15 13 13 12 12 14 16 14 12 12 10 8 9 10 10 11 12 14 15 17 20 22 24 26 26 27 27 27 26
23 20 18 18 18 18 18 18 19 19 18 21 22 20 20 22 23 19 15 11 10 10 10 11 11 10 10 11 14 15 16 17 19 21 23 25 25 25 25 25 24 23 22
20 18 18 19 21 21 22 21 21 27 27 21 21 20 20 19 17 14 13 14 15 15 15 14 12 12 13 14 16 19 21 22 24 24 25 24 23 23 22 21 19 18 17
29 31 31 30 29 27 26 24 23 23 21 20 20 19 18 18 19 19 18 17 18 16 15 15 15 16 18 20 21 23 24 25 26 27 26 25 23 21 19 17 16 15 14
23 24 25 23 22 22 21 21 20 19 19 19 19 20 21 22 22 22 22 22 20 19 17 16 17 18 20 21 22 23 24 25 25 25 24 22 20 19 18 16 13 11 9
21 21 21 20 19 18 17 17 18 18 18 20 22 22 22 20 21 21 20 19 17 15 14 16 18 19 20 23 25 25 25 24 24 23 21 21 20 17 15 13 11 8 3
19 17 17 17 16 16 16 16 16 17 18 18 19 19 19 20 20 20 20 18 15 15 16 18 19 21 24 25 26 27 26 26 26 25 22 19 17 17 14 10 7 4 1
18 17 16 17 16 15 15 15 15 16 16 17 18 18 19 20 21 22 21 20 18 18 18 19 22 24 25 27 27 28 29 28 27 25 22 18 20 17 12 9 6 3 3
19 17 16 15 15 14 13 14 15 16 17 18 19 20 20 21 22 22 22 21 19 18 19 21 23 25 26 27 28 28 28 28 26 24 23 20 21 16 13 11 9 9 12
20 18 18 17 15 14 14 15 16 17 17 19 20 21 21 21 23 24 23 21 20 20 20 21 23 25 26 27 27 27 27 27 27 25 24 21 21 16 14 12 9 9 11
21 20 19 16 14 14 14 15 16 17 19 20 20 21 22 22 22 23 24 23 21 21 21 22 23 24 25 26 26 26 25 25 27 26 24 22 22 19 17 14 11 14 19
23 24 24 20 17 15 15 15 17 18 20 21 21 22 23 24 23 23 24 25 24 22 21 22 22 23 25 26 26 24 23 23 24 24 24 23 21 20 18 15 16 19 18
Wind_Direction
292 290 288 287 286 285 284 283 282 280 275 273 272 269 272 267 270 277 276 274 276 273 269 270 273 278 286 282 284 284 282 281 281 280 282 285 285 287 282 282 284 282 281
288 287 286 285 283 283 281 280 279 278 280 280 279 277 272 265 269 272 270 273 276 277 277 271 271 272 277 281 279 280 280 280 279 280 280 282 284 283 283 284 283 279 278
287 287 286 285 284 284 282 281 282 282 280 277 276 273 271 269 266 265 265 267 269 275 281 286 267 271 274 275 277 278 279 280 281 283 285 284 283 280 281 282 281 279 277
284 283 283 283 284 284 284 284 285 283 281 282 280 276 272 269 270 268 269 268 266 268 275 282 262 263 269 272 275 281 283 285 286 286 284 284 288 288 287 283 279 276 275
289 288 287 287 286 285 285 284 292 287 287 294 289 274 272 272 270 267 266 266 264 269 269 267 254 259 264 269 281 283 280 281 283 285 288 296 296 298 295 288 282 277 272
287 284 282 281 280 282 285 289 287 295 296 300 304 286 273 263 266 267 262 255 265 260 248 244 251 256 260 275 284 282 281 283 291 293 295 299 306 316 323 310 291 277 271
294 287 278 278 278 283 285 286 292 313 318 311 309 296 290 262 255 256 262 261 252 255 242 243 251 257 270 279 280 278 270 287 287 292 301 299 297 331 326 333 349 317 284
321 301 291 277 284 280 287 289 300 317 318 323 320 325 305 286 266 256 245 250 238 234 245 251 263 269 289 276 264 267 274 289 290 290 300 285 298 320 327 327 351 359 20
351 349 329 301 301 313 302 302 310 309 311 320 332 349 22 65 88 124 200 220 229 250 240 260 281 271 276 277 271 288 285 295 298 290 288 269 305 302 292 304 327 326 328
4 13 37 61 39 359 351 333 338 347 338 29 48 58 76 90 122 176 207 219 204 179 217 263 264 291 288 285 265 288 291 290 295 299 304 321 312 309 307 309 314 313 315
47 50 65 55 57 36 18 31 45 87 127 118 102 98 85 80 79 122 140 150 134 96 309 313 293 265 291 278 284 287 281 289 297 266 251 305 317 318 317 315 314 316 317
61 57 57 55 59 58 54 54 63 75 93 95 89 84 92 91 90 91 91 64 68 71 347 325 315 262 275 286 293 285 290 297 280 318 287 299 305 306 307 308 309 310 310
70 75 78 77 77 77 76 78 82 89 85 84 86 90 86 65 74 90 80 61 11 334 317 313 324 318 316 310 317 323 241 304 315 320 309 301 302 301 302 302 304 306 306
77 77 78 81 78 78 84 88 82 86 81 87 81 85 79 64 79 79 56 3 334 334 331 324 306 314 66 26 1 351 327 320 311 305 302 302 303 302 304 305 305 305 304
68 78 70 69 73 78 82 74 73 70 66 63 53 57 56 40 28 32 39 51 67 58 52 40 37 20 355 345 341 333 325 318 316 315 310 307 306 306 304 303 304 304 303
73 74 61 61 61 61 62 63 63 61 61 59 64 69 67 69 69 71 71 45 39 33 28 28 22 14 0 354 347 343 335 327 321 318 316 315 315 313 310 308 306 305 305
61 59 62 65 67 69 72 72 73 84 84 66 69 64 60 59 55 51 40 31 28 21 22 20 15 10 4 359 351 346 342 337 332 330 328 324 320 317 314 313 313 312 311
80 81 79 79 76 75 76 75 74 71 68 62 60 58 53 47 39 32 28 22 22 22 22 24 22 14 5 356 349 345 343 343 341 338 335 332 329 326 324 320 316 314 312
72 69 68 66 65 66 66 66 66 66 63 58 52 45 36 31 25 20 13 11 14 18 20 19 11 2 357 355 355 353 351 347 343 340 337 335 335 330 325 322 321 317 310
67 64 61 58 58 58 60 62 61 58 54 48 41 31 21 14 16 15 15 14 15 15 12 9 5 4 4 4 1 357 353 349 346 346 345 343 341 340 336 329 326 326 315
57 49 48 54 56 59 59 58 54 50 42 35 28 19 17 21 22 20 18 15 16 14 13 9 7 8 9 6 1 358 358 358 356 355 354 351 351 349 347 346 353 6 68
40 38 43 48 50 51 48 43 38 33 29 23 19 17 18 20 20 19 18 16 15 13 10 7 7 8 7 4 2 2 4 5 360 359 359 2 3 5 10 12 13 31 108
32 32 42 45 44 41 36 29 25 21 16 12 9 11 13 15 15 17 16 14 11 10 7 6 7 6 5 4 4 6 5 4 4 3 7 12 12 20 28 36 54 90 108
25 29 31 31 30 26 20 15 13 11 8 6 6 7 7 9 11 11 10 11 9 5 5 5 5 5 6 4 5 6 6 6 9 9 12 17 19 28 34 40 60 103 116
26 29 29 26 21 14 9 5 3 3 4 3 2 3 4 4 5 7 7 6 5 4 4 4 4 4 5 5 7 6 5 10 12 13 15 20 22 28 32 39 73 113 121
19 24 23 18 13 8 2 358 357 357 358 359 358 359 1 4 2 1 2 2 1 0 0 0 1 1 3 5 5 5 5 8 12 16 18 20 24 29 37 57 98 115 117
Height
5712 5708 5703 5699 5695 5692 5688 5683 5680 5679 5678 5675 5672 5668 5665 5662 5659 5658 5657 5656 5657 5656 5657 5659 5660 5662 5663 5661 5660 5658 5656 5653 5650 5647 5643 5640 5639 5636 5634 5631 5628 5625 5623
5693 5689 5686 5682 5677 5674 5670 5665 5662 5659 5656 5653 5649 5647 5646 5645 5642 5643 5643 5640 5639 5637 5638 5641 5644 5648 5648 5648 5646 5645 5643 5640 5638 5635 5632 5629 5626 5623 5621 5619 5616 5613 5611
5677 5672 5666 5662 5658 5654 5650 5645 5642 5639 5635 5632 5627 5624 5621 5620 5623 5625 5626 5625 5625 5625 5626 5626 5630 5635 5635 5635 5634 5632 5631 5629 5626 5624 5622 5619 5615 5611 5608 5606 5603 5601 5599
5658 5653 5648 5644 5640 5637 5632 5628 5625 5621 5618 5614 5608 5603 5600 5600 5603 5605 5607 5610 5611 5614 5616 5616 5619 5623 5625 5624 5623 5622 5620 5619 5616 5614 5611 5608 5605 5601 5597 5593 5591 5589 5588
5636 5631 5627 5625 5622 5620 5617 5614 5610 5605 5602 5598 5591 5585 5583 5583 5586 5588 5592 5595 5597 5603 5605 5606 5610 5613 5615 5615 5613 5612 5611 5609 5608 5606 5603 5601 5597 5592 5586 5581 5578 5577 5576
5619 5614 5612 5609 5608 5606 5605 5602 5600 5596 5591 5585 5578 5573 5570 5571 5574 5578 5581 5584 5587 5591 5594 5598 5601 5605 5607 5606 5605 5604 5604 5603 5601 5600 5597 5594 5591 5585 5578 5571 5567 5565 5564
5599 5595 5595 5596 5596 5597 5595 5594 5592 5588 5583 5578 5572 5567 5564 5564 5568 5571 5574 5577 5581 5585 5590 5593 5597 5598 5600 5599 5598 5598 5597 5596 5596 5594 5591 5589 5586 5581 5577 5572 5565 5559 5557
5587 5585 5586 5588 5589 5589 5589 5589 5586 5581 5579 5574 5569 5565 5563 5563 5565 5568 5572 5575 5580 5584 5587 5590 5592 5593 5593 5593 5593 5593 5592 5592 5590 5588 5586 5584 5582 5579 5575 5570 5566 5561 5558
5590 5586 5584 5584 5585 5586 5586 5584 5580 5578 5575 5573 5570 5567 5565 5565 5566 5569 5573 5576 5579 5582 5586 5586 5586 5587 5590 5589 5590 5590 5589 5587 5585 5582 5580 5579 5578 5576 5573 5570 5566 5563 5561
5591 5588 5586 5586 5586 5586 5584 5581 5578 5575 5575 5574 5572 5571 5570 5570 5571 5573 5575 5576 5578 5581 5583 5584 5586 5586 5587 5587 5586 5585 5585 5582 5580 5579 5577 5576 5575 5571 5569 5566 5564 5561 5559
5594 5591 5590 5589 5589 5588 5585 5581 5578 5576 5575 5576 5576 5575 5575 5574 5575 5575 5577 5579 5580 5582 5584 5584 5583 5583 5584 5583 5582 5581 5580 5578 5576 5574 5574 5573 5570 5568 5565 5563 5560 5558 5556
5600 5598 5596 5594 5592 5591 5589 5587 5584 5582 5581 5581 5580 5579 5580 5579 5580 5580 5581 5582 5584 5584 5584 5583 5582 5582 5581 5581 5580 5578 5575 5573 5571 5570 5570 5570 5567 5564 5562 5559 5556 5554 5552
5606 5603 5601 5599 5598 5597 5595 5594 5593 5592 5590 5589 5588 5587 5586 5586 5585 5586 5586 5586 5586 5585 5584 5582 5581 5580 5579 5578 5577 5575 5573 5571 5570 5568 5567 5566 5563 5560 5558 5555 5552 5549 5547
5613 5611 5610 5608 5606 5605 5604 5603 5600 5599 5598 5596 5595 5594 5592 5591 5590 5590 5590 5590 5588 5584 5582 5580 5579 5579 5578 5578 5578 5576 5573 5570 5568 5566 5564 5561 5558 5555 5552 5549 5547 5544 5541
5623 5621 5620 5617 5615 5613 5611 5610 5608 5607 5605 5603 5601 5599 5597 5596 5595 5594 5593 5591 5589 5588 5585 5584 5582 5581 5580 5578 5576 5574 5572 5569 5566 5562 5559 5555 5552 5548 5545 5542 5539 5537 5534
5632 5630 5627 5625 5622 5620 5618 5615 5613 5612 5609 5607 5604 5603 5601 5600 5599 5598 5596 5595 5593 5590 5588 5586 5585 5583 5580 5577 5574 5571 5569 5565 5561 5557 5553 5548 5544 5540 5537 5534 5532 5529 5528
5638 5636 5633 5630 5627 5624 5622 5620 5618 5617 5616 5614 5612 5610 5608 5606 5604 5602 5600 5598 5595 5593 5590 5588 5586 5582 5579 5577 5573 5569 5564 5560 5555 5550 5546 5542 5538 5534 5531 5528 5525 5523 5522
5644 5642 5640 5637 5634 5632 5630 5628 5626 5624 5622 5620 5618 5616 5613 5611 5608 5606 5603 5600 5597 5594 5591 5589 5585 5583 5579 5575 5571 5566 5561 5556 5551 5546 5541 5536 5532 5529 5525 5523 5520 5518 5516
5653 5650 5648 5645 5643 5640 5638 5636 5633 5631 5628 5625 5623 5621 5618 5614 5611 5608 5605 5601 5598 5595 5593 5590 5587 5583 5579 5575 5570 5565 5559 5554 5549 5543 5538 5533 5529 5525 5521 5518 5516 5514 5513
5659 5657 5654 5651 5648 5646 5643 5641 5638 5635 5633 5631 5628 5625 5622 5619 5615 5611 5607 5604 5600 5598 5595 5592 5588 5584 5579 5574 5569 5564 5559 5553 5547 5541 5536 5531 5526 5522 5518 5515 5513 5511 5510
5666 5663 5660 5656 5653 5650 5648 5645 5643 5640 5637 5634 5631 5628 5625 5621 5617 5613 5609 5606 5603 5600 5596 5592 5588 5584 5579 5574 5569 5563 5557 5551 5545 5540 5534 5530 5525 5520 5516 5513 5511 5510 5510
5671 5667 5663 5660 5657 5655 5653 5650 5648 5644 5640 5637 5634 5631 5627 5623 5619 5615 5611 5608 5604 5601 5597 5593 5589 5584 5579 5574 5568 5562 5556 5551 5545 5540 5534 5529 5525 5520 5516 5513 5512 5511 5510
5673 5670 5667 5664 5661 5659 5657 5654 5650 5648 5645 5642 5638 5635 5631 5627 5622 5618 5613 5609 5606 5602 5598 5594 5589 5584 5579 5574 5568 5563 5557 5552 5547 5541 5535 5530 5526 5521 5518 5515 5514 5513 5513
5678 5674 5670 5667 5665 5662 5659 5657 5654 5650 5647 5643 5640 5636 5632 5627 5623 5619 5615 5611 5607 5603 5598 5594 5590 5585 5580 5575 5569 5564 5559 5553 5548 5542 5537 5532 5528 5524 5520 5518 5516 5516 5517
5682 5678 5674 5671 5668 5665 5662 5659 5656 5652 5648 5644 5640 5636 5633 5629 5624 5620 5616 5612 5607 5603 5599 5594 5590 5585 5581 5576 5570 5566 5561 5556 5550 5545 5539 5535 5531 5527 5523 5521 5519 5519 5521
5685 5681 5677 5673 5669 5666 5663 5659 5656 5653 5649 5645 5641 5637 5633 5629 5625 5621 5617 5613 5608 5603 5599 5595 5590 5586 5581 5576 5571 5567 5562 5557 5553 5548 5543 5538 5534 5530 5527 5525 5524 5525 5527